Time,TemperatureF,DewpointF,PressureIn,WindDirection,WindDirectionDegrees,WindSpeedMPH,WindSpeedGustMPH,Humidity,HourlyPrecipIn,Conditions,Clouds,dailyrainin,SoftwareType,DateUTC
2013-01-11 00:11:00,32.5,31.0,29.71,SE,146,0.0,3.0,92,0.01,,,0.00,weatherlink.com 1.10,2013-01-11 06:11:00,
2013-01-11 00:26:00,32.5,31.0,29.70,SE,146,1.0,3.0,92,0.01,,,0.00,weatherlink.com 1.10,2013-01-11 06:26:00,
2013-01-11 00:41:00,32.5,31.0,29.69,SSE,148,0.0,4.0,92,0.00,,,0.00,weatherlink.com 1.10,2013-01-11 06:41:00,
2013-01-11 00:56:00,32.5,31.0,29.70,South,175,3.0,5.0,92,0.00,,,0.00,weatherlink.com 1.10,2013-01-11 06:56:00,
2013-01-11 01:11:00,32.5,31.0,29.70,SSE,147,5.0,5.0,92,0.00,,,0.00,weatherlink.com 1.10,2013-01-11 07:11:00,
2013-01-11 01:26:00,32.5,31.0,29.70,SSE,154,0.0,4.0,92,0.00,,,0.00,weatherlink.com 1.10,2013-01-11 07:26:00,
2013-01-11 01:41:00,32.5,31.0,29.68,SSE,155,1.0,3.0,92,0.00,,,0.00,weatherlink.com 1.10,2013-01-11 07:41:00,
2013-01-11 01:56:00,32.5,31.0,29.67,SSE,155,0.0,2.0,92,0.00,,,0.00,weatherlink.com 1.10,2013-01-11 07:56:00,
2013-01-11 02:11:00,32.5,31.0,29.67,SSE,161,5.0,5.0,92,0.00,,,0.00,weatherlink.com 1.10,2013-01-11 08:11:00,
2013-01-11 02:26:00,32.5,31.0,29.66,SSE,157,3.0,5.0,92,0.00,,,0.00,weatherlink.com 1.10,2013-01-11 08:26:00,
2013-01-11 02:41:00,32.6,31.0,29.68,SSE,163,0.0,4.0,92,0.00,,,0.00,weatherlink.com 1.10,2013-01-11 08:41:00,
2013-01-11 02:56:00,32.5,31.0,29.67,SSW,192,0.0,5.0,92,0.00,,,0.00,weatherlink.com 1.10,2013-01-11 08:56:00,
2013-01-11 03:11:00,32.5,31.0,29.67,SSW,192,2.0,3.0,92,0.00,,,0.00,weatherlink.com 1.10,2013-01-11 09:11:00,
2013-01-11 03:26:00,32.5,31.0,29.65,SSW,192,3.0,3.0,92,0.00,,,0.00,weatherlink.com 1.10,2013-01-11 09:26:00,
2013-01-11 03:41:00,32.5,31.0,29.64,South,190,0.0,6.0,92,0.00,,,0.00,weatherlink.com 1.10,2013-01-11 09:41:00,
2013-01-11 03:57:00,32.6,31.0,29.63,South,190,0.0,3.0,92,0.00,,,0.00,weatherlink.com 1.10,2013-01-11 09:57:00,
2013-01-11 04:12:00,33.0,31.0,29.62,South,190,0.0,4.0,92,0.00,,,0.00,weatherlink.com 1.10,2013-01-11 10:12:00,
2013-01-11 04:27:00,33.0,31.0,29.62,South,190,2.0,3.0,92,0.00,,,0.00,weatherlink.com 1.10,2013-01-11 10:27:00,
2013-01-11 04:42:00,33.0,31.0,29.60,South,186,3.0,5.0,92,0.00,,,0.00,weatherlink.com 1.10,2013-01-11 10:42:00,
2013-01-11 04:57:00,33.2,31.0,29.60,SSE,163,0.0,7.0,92,0.01,,,0.01,weatherlink.com 1.10,2013-01-11 10:57:00,
2013-01-11 05:27:00,32.9,31.0,29.59,SSE,160,3.0,5.0,92,0.01,,,0.01,weatherlink.com 1.10,2013-01-11 11:27:00,
2013-01-11 05:42:00,32.7,31.0,29.58,SSE,160,3.0,4.0,92,0.01,,,0.01,weatherlink.com 1.10,2013-01-11 11:42:00,
2013-01-11 05:57:00,32.7,31.0,29.59,South,176,3.0,5.0,92,0.00,,,0.01,weatherlink.com 1.10,2013-01-11 11:57:00,
2013-01-11 06:12:00,32.6,31.0,29.58,South,176,0.0,4.0,92,0.00,,,0.01,weatherlink.com 1.10,2013-01-11 12:12:00,
2013-01-11 06:27:00,32.5,31.0,29.58,South,176,0.0,3.0,92,0.00,,,0.01,weatherlink.com 1.10,2013-01-11 12:27:00,
2013-01-11 06:42:00,32.5,31.0,29.58,South,176,2.0,2.0,92,0.00,,,0.01,weatherlink.com 1.10,2013-01-11 12:42:00,
2013-01-11 06:57:00,32.5,31.0,29.58,South,175,0.0,4.0,92,0.00,,,0.01,weatherlink.com 1.10,2013-01-11 12:57:00,
2013-01-11 07:12:00,32.6,31.0,29.58,South,175,0.0,4.0,93,0.00,,,0.01,weatherlink.com 1.10,2013-01-11 13:12:00,
2013-01-11 07:27:00,32.6,31.0,29.58,South,188,0.0,6.0,93,0.00,,,0.01,weatherlink.com 1.10,2013-01-11 13:27:00,
2013-01-11 07:42:00,32.8,31.0,29.58,South,190,2.0,4.0,93,0.00,,,0.01,weatherlink.com 1.10,2013-01-11 13:42:00,
2013-01-11 07:57:00,32.9,31.0,29.58,SSW,200,3.0,6.0,92,0.00,,,0.01,weatherlink.com 1.10,2013-01-11 13:57:00,
2013-01-11 08:12:00,33.0,31.0,29.58,SSW,207,4.0,7.0,92,0.00,,,0.01,weatherlink.com 1.10,2013-01-11 14:12:00,
2013-01-11 08:27:00,33.1,31.0,29.57,South,173,1.0,5.0,92,0.00,,,0.01,weatherlink.com 1.10,2013-01-11 14:27:00,
2013-01-11 08:42:00,33.2,31.0,29.58,SSW,199,0.0,6.0,93,0.00,,,0.01,weatherlink.com 1.10,2013-01-11 14:42:00,
2013-01-11 08:57:00,33.4,32.0,29.58,SSW,200,0.0,4.0,93,0.00,,,0.01,weatherlink.com 1.10,2013-01-11 14:57:00,
2013-01-11 09:12:00,33.5,32.0,29.57,SSW,202,4.0,5.0,93,0.00,,,0.01,weatherlink.com 1.10,2013-01-11 15:12:00,
2013-01-11 09:27:00,33.6,32.0,29.56,SSW,200,4.0,5.0,93,0.00,,,0.01,weatherlink.com 1.10,2013-01-11 15:27:00,
2013-01-11 09:42:00,34.1,32.0,29.57,SSE,155,2.0,6.0,93,0.00,,,0.01,weatherlink.com 1.10,2013-01-11 15:42:00,
2013-01-11 09:57:00,34.7,33.0,29.55,SSW,208,1.0,5.0,93,0.00,,,0.01,weatherlink.com 1.10,2013-01-11 15:57:00,
2013-01-11 10:12:00,35.3,34.0,29.55,South,172,2.0,5.0,93,0.00,,,0.01,weatherlink.com 1.10,2013-01-11 16:12:00,
2013-01-11 10:27:00,35.6,34.0,29.56,South,171,1.0,4.0,93,0.00,,,0.01,weatherlink.com 1.10,2013-01-11 16:27:00,
2013-01-11 10:42:00,35.9,34.0,29.55,South,173,1.0,5.0,93,0.00,,,0.01,weatherlink.com 1.10,2013-01-11 16:42:00,
2013-01-11 10:57:00,36.3,35.0,29.55,South,172,1.0,2.0,93,0.00,,,0.01,weatherlink.com 1.10,2013-01-11 16:57:00,
2013-01-11 11:12:00,36.9,35.0,29.54,South,186,3.0,5.0,93,0.00,,,0.01,weatherlink.com 1.10,2013-01-11 17:12:00,
2013-01-11 11:27:00,37.7,36.0,29.53,South,186,0.0,4.0,93,0.00,,,0.01,weatherlink.com 1.10,2013-01-11 17:27:00,
2013-01-11 11:42:00,37.7,36.0,29.51,SE,142,0.0,7.0,93,0.00,,,0.01,weatherlink.com 1.10,2013-01-11 17:42:00,
2013-01-11 11:57:00,38.0,36.0,29.50,South,178,3.0,5.0,93,0.00,,,0.01,weatherlink.com 1.10,2013-01-11 17:57:00,
2013-01-11 12:13:00,38.1,36.0,29.49,South,179,0.0,6.0,93,0.00,,,0.01,weatherlink.com 1.10,2013-01-11 18:13:00,
2013-01-11 12:28:00,38.7,37.0,29.48,South,175,3.0,7.0,93,0.00,,,0.01,weatherlink.com 1.10,2013-01-11 18:28:00,
2013-01-11 12:43:00,38.9,37.0,29.47,South,169,0.0,5.0,93,0.00,,,0.01,weatherlink.com 1.10,2013-01-11 18:43:00,
2013-01-11 12:58:00,38.9,37.0,29.46,South,172,2.0,5.0,93,0.00,,,0.01,weatherlink.com 1.10,2013-01-11 18:58:00,
2013-01-11 13:13:00,39.1,37.0,29.45,South,172,1.0,4.0,93,0.00,,,0.01,weatherlink.com 1.10,2013-01-11 19:13:00,
2013-01-11 13:28:00,39.8,38.0,29.45,SSE,167,1.0,7.0,93,0.00,,,0.01,weatherlink.com 1.10,2013-01-11 19:28:00,
2013-01-11 13:43:00,39.7,38.0,29.44,SE,142,2.0,6.0,93,0.00,,,0.01,weatherlink.com 1.10,2013-01-11 19:43:00,
2013-01-11 13:58:00,40.1,38.0,29.44,South,188,3.0,9.0,93,0.00,,,0.01,weatherlink.com 1.10,2013-01-11 19:58:00,
2013-01-11 14:28:00,40.5,39.0,29.45,SSW,205,3.0,9.0,93,0.00,,,0.01,weatherlink.com 1.10,2013-01-11 20:28:00,
2013-01-11 14:43:00,40.5,39.0,29.46,SSW,199,2.0,5.0,93,0.00,,,0.01,weatherlink.com 1.10,2013-01-11 20:43:00,
2013-01-11 14:58:00,40.4,39.0,29.44,South,172,2.0,7.0,93,0.00,,,0.01,weatherlink.com 1.10,2013-01-11 20:58:00,
2013-01-11 15:13:00,40.9,39.0,29.44,SE,137,7.0,7.0,93,0.00,,,0.01,weatherlink.com 1.10,2013-01-11 21:13:00,
2013-01-11 15:28:00,41.1,39.0,29.43,South,172,6.0,6.0,93,0.00,,,0.01,weatherlink.com 1.10,2013-01-11 21:28:00,
2013-01-11 15:43:00,41.1,39.0,29.43,SSE,163,2.0,5.0,93,0.00,,,0.01,weatherlink.com 1.10,2013-01-11 21:43:00,
2013-01-11 15:58:00,40.9,39.0,29.44,South,176,2.0,5.0,93,0.00,,,0.01,weatherlink.com 1.10,2013-01-11 21:58:00,
2013-01-11 16:13:00,40.4,39.0,29.43,South,171,3.0,6.0,93,0.00,,,0.01,weatherlink.com 1.10,2013-01-11 22:13:00,
2013-01-11 16:28:00,39.8,38.0,29.44,SSE,148,1.0,7.0,93,0.00,,,0.01,weatherlink.com 1.10,2013-01-11 22:28:00,
2013-01-11 16:43:00,39.7,38.0,29.43,South,169,2.0,4.0,93,0.00,,,0.01,weatherlink.com 1.10,2013-01-11 22:43:00,
2013-01-11 16:58:00,39.5,38.0,29.44,South,174,0.0,4.0,93,0.00,,,0.01,weatherlink.com 1.10,2013-01-11 22:58:00,
2013-01-11 17:13:00,39.3,38.0,29.43,SE,132,1.0,4.0,93,0.00,,,0.01,weatherlink.com 1.10,2013-01-11 23:13:00,
2013-01-11 17:28:00,39.3,38.0,29.42,SSE,149,1.0,4.0,93,0.00,,,0.01,weatherlink.com 1.10,2013-01-11 23:28:00,
2013-01-11 17:43:00,38.9,37.0,29.42,South,180,3.0,4.0,93,0.00,,,0.01,weatherlink.com 1.10,2013-01-11 23:43:00,
2013-01-11 17:58:00,38.6,37.0,29.42,SSE,165,2.0,5.0,93,0.00,,,0.01,weatherlink.com 1.10,2013-01-11 23:58:00,
2013-01-11 18:13:00,38.6,37.0,29.42,SE,143,2.0,5.0,93,0.00,,,0.01,weatherlink.com 1.10,2013-01-12 00:13:00,
2013-01-11 18:28:00,38.3,37.0,29.42,SSW,192,2.0,6.0,93,0.00,,,0.01,weatherlink.com 1.10,2013-01-12 00:28:00,
2013-01-11 18:43:00,38.0,36.0,29.41,SE,129,3.0,5.0,93,0.00,,,0.01,weatherlink.com 1.10,2013-01-12 00:43:00,
2013-01-11 18:58:00,37.7,36.0,29.42,SE,133,0.0,6.0,93,0.00,,,0.01,weatherlink.com 1.10,2013-01-12 00:58:00,
2013-01-11 19:13:00,37.3,36.0,29.42,SSW,202,4.0,7.0,93,0.00,,,0.01,weatherlink.com 1.10,2013-01-12 01:13:00,
2013-01-11 19:28:00,37.1,35.0,29.42,SSE,153,2.0,9.0,93,0.00,,,0.01,weatherlink.com 1.10,2013-01-12 01:28:00,
2013-01-11 19:43:00,37.0,35.0,29.41,SSE,151,2.0,10.0,93,0.00,,,0.01,weatherlink.com 1.10,2013-01-12 01:43:00,
2013-01-11 19:58:00,36.6,35.0,29.41,South,170,2.0,7.0,93,0.00,,,0.01,weatherlink.com 1.10,2013-01-12 01:58:00,
2013-01-11 20:13:00,36.2,34.0,29.40,SSE,157,2.0,5.0,93,0.00,,,0.01,weatherlink.com 1.10,2013-01-12 02:13:00,
2013-01-11 20:28:00,35.9,34.0,29.41,SE,132,1.0,7.0,93,0.00,,,0.01,weatherlink.com 1.10,2013-01-12 02:28:00,
2013-01-11 20:43:00,35.5,34.0,29.41,SSE,159,2.0,6.0,93,0.00,,,0.01,weatherlink.com 1.10,2013-01-12 02:43:00,
2013-01-11 20:58:00,34.9,33.0,29.41,SSE,164,2.0,5.0,93,0.00,,,0.01,weatherlink.com 1.10,2013-01-12 02:58:00,
2013-01-11 21:13:00,34.4,33.0,29.40,South,170,1.0,5.0,93,0.00,,,0.01,weatherlink.com 1.10,2013-01-12 03:13:00,
2013-01-11 21:28:00,34.1,32.0,29.41,South,183,0.0,4.0,93,0.00,,,0.01,weatherlink.com 1.10,2013-01-12 03:28:00,
2013-01-11 21:43:00,33.9,32.0,29.41,South,183,2.0,3.0,93,0.00,,,0.01,weatherlink.com 1.10,2013-01-12 03:43:00,
2013-01-11 21:58:00,34.2,32.0,29.41,South,183,0.0,2.0,93,0.00,,,0.01,weatherlink.com 1.10,2013-01-12 03:58:00,
2013-01-11 22:13:00,36.1,34.0,29.41,SSW,210,2.0,8.0,93,0.00,,,0.01,weatherlink.com 1.10,2013-01-12 04:13:00,
2013-01-11 22:28:00,37.4,36.0,29.41,SSW,199,3.0,7.0,93,0.00,,,0.01,weatherlink.com 1.10,2013-01-12 04:28:00,
2013-01-11 22:43:00,38.5,37.0,29.41,SSW,213,2.0,7.0,93,0.00,,,0.01,weatherlink.com 1.10,2013-01-12 04:43:00,
2013-01-11 22:58:00,38.8,37.0,29.41,SW,227,8.0,8.0,93,0.00,,,0.01,weatherlink.com 1.10,2013-01-12 04:58:00,
2013-01-11 23:13:00,37.9,36.0,29.42,SSW,205,4.0,7.0,93,0.00,,,0.01,weatherlink.com 1.10,2013-01-12 05:13:00,
2013-01-11 23:28:00,37.6,36.0,29.42,SW,232,4.0,8.0,93,0.00,,,0.01,weatherlink.com 1.10,2013-01-12 05:28:00,
2013-01-11 23:43:00,37.4,36.0,29.42,WSW,238,2.0,7.0,93,0.00,,,0.01,weatherlink.com 1.10,2013-01-12 05:43:00,
2013-01-11 23:58:00,37.2,35.0,29.43,WSW,257,2.0,6.0,93,0.00,,,0.01,weatherlink.com 1.10,2013-01-12 05:58:00,